CW2274 Weather Reports


Display with metric or nautical units.
time (UTC)temp
F
wind
direction
speed
MPH
gust
MPH
rain 1hr
in
rain 24hr
in
rain mn
in
humidity
%
barometer
mb
20260508222525 96 279 6.0 14.0 0.00 0.00 0.00 10 1011.9
20260508222020 96 265 7.0 11.0 0.00 0.00 0.00 9 1012.0
20260508221516 94 286 4.0 16.0 0.00 0.00 0.00 11 1012.2
20260508221031 95 290 4.0 16.0 0.00 0.00 0.00 10 1012.2
20260508220526 96 289 3.0 8.0 0.00 0.00 0.00 11 1012.3
20260508220032 94 321 3.0 12.0 0.00 0.00 0.00 11 1012.4
20260508215516 95 298 6.0 13.0 0.00 0.00 0.00 11 1012.5
20260508215032 96 289 6.0 13.0 0.00 0.00 0.00 10 1012.5
20260508214527 95 302 6.0 13.0 0.00 0.00 0.00 11 1012.6
20260508214022 95 281 7.0 15.0 0.00 0.00 0.00 10 1012.9
20260508213517 95 263 5.0 12.0 0.00 0.00 0.00 11 1012.9
20260508213032 93 312 2.0 11.0 0.00 0.00 0.00 12 1012.9
20260508212528 95 325 3.0 11.0 0.00 0.00 0.00 11 1013.0
20260508212028 95 294 2.0 10.0 0.00 0.00 0.00 11 1013.0
20260508211524 94 294 3.0 10.0 0.00 0.00 0.00 12 1013.1
20260508211020 93 338 5.0 15.0 0.00 0.00 0.00 12 1013.2
20260508210516 95 4 5.0 12.0 0.00 0.00 0.00 11 1013.1
20260508205531 95 273 6.0 12.0 0.00 0.00 0.00 12 1013.2
20260508205027 96 286 4.0 9.0 0.00 0.00 0.00 10 1013.3
20260508204527 94 287 5.0 11.0 0.00 0.00 0.00 12 1013.4
20260508204022 94 288 4.0 11.0 0.00 0.00 0.00 12 1013.5
20260508203517 94 282 4.0 10.0 0.00 0.00 0.00 12 1013.5
20260508203013 92 9 3.0 10.0 0.00 0.00 0.00 13 1013.5
20260508202529 94 291 4.0 10.0 0.00 0.00 0.00 13 1013.6
20260508202026 95 357 4.0 11.0 0.00 0.00 0.00 12 1013.7
20260508201521 94 287 5.0 11.0 0.00 0.00 0.00 12 1013.6
20260508201020 93 258 4.0 11.0 0.00 0.00 0.00 13 1013.6
20260508200516 93 308 3.0 14.0 0.00 0.00 0.00 13 1013.9
20260508200044 93 354 5.0 14.0 0.00 0.00 0.00 12 1013.9
20260508195526 93 298 5.0 11.0 0.00 0.00 0.00 12 1014.1
20260508195022 93 240 5.0 11.0 0.00 0.00 0.00 12 1014.0
20260508194518 93 288 3.0 12.0 0.00 0.00 0.00 13 1014.0
20260508194014 94 277 5.0 11.0 0.00 0.00 0.00 13 1014.2
20260508193513 92 360 2.0 10.0 0.00 0.00 0.00 13 1014.1
20260508193029 93 308 3.0 10.0 0.00 0.00 0.00 14 1014.3
20260508192525 93 64 2.0 13.0 0.00 0.00 0.00 13 1014.4
20260508192021 92 270 4.0 10.0 0.00 0.00 0.00 14 1014.4
20260508191517 92 354 5.0 11.0 0.00 0.00 0.00 14 1014.5
20260508191013 94 292 5.0 11.0 0.00 0.00 0.00 13 1014.5
20260508190528 92 295 4.0 11.0 0.00 0.00 0.00 14 1014.6
20260508190036 91 275 4.0 9.0 0.00 0.00 0.00 14 1014.8
20260508185521 92 301 4.0 6.0 0.00 0.00 0.00 14 1014.8
20260508185017 91 283 1.0 5.0 0.00 0.00 0.00 15 1014.9
20260508184513 90 52 2.0 6.0 0.00 0.00 0.00 15 1014.9
20260508184029 90 327 1.0 6.0 0.00 0.00 0.00 16 1015.1
20260508183524 89 293 2.0 8.0 0.00 0.00 0.00 16 1015.0
20260508183019 89 325 3.0 8.0 0.00 0.00 0.00 16 1015.1
20260508182515 88 318 2.0 6.0 0.00 0.00 0.00 16 1015.1
20260508182016 89 342 2.0 6.0 0.00 0.00 0.00 16 1015.2
20260508181028 87 340 4.0 9.0 0.00 0.00 0.00 17 1015.2
20260508180524 89 359 2.0 9.0 0.00 0.00 0.00 17 1015.4
20260508180032 87 20 4.0 7.0 0.00 0.00 0.00 16 1015.4
20260508175513 87 312 2.0 8.0 0.00 0.00 0.00 17 1015.6
20260508175029 87 321 3.0 8.0 0.00 0.00 0.00 17 1015.7
20260508174530 87 235 2.0 5.0 0.00 0.00 0.00 17 1015.7
20260508174026 88 308 1.0 5.0 0.00 0.00 0.00 17 1015.8
20260508173522 86 21 2.0 5.0 0.00 0.00 0.00 18 1015.8
20260508173018 86 326 1.0 7.0 0.00 0.00 0.00 19 1015.8
20260508172513 85 24 3.0 7.0 0.00 0.00 0.00 18 1015.9
20260508172029 85 68 1.0 4.0 0.00 0.00 0.00 19 1015.9
20260508171525 84 213 1.0 3.0 0.00 0.00 0.00 20 1016.0
20260508171025 83 216 1.0 4.0 0.00 0.00 0.00 21 1016.1
20260508170521 83 218 2.0 4.0 0.00 0.00 0.00 21 1016.2
20260508170029 82 214 2.0 4.0 0.00 0.00 0.00 21 1016.2
20260508165530 83 59 1.0 3.0 0.00 0.00 0.00 21 1016.2
20260508165026 80 73 2.0 4.0 0.00 0.00 0.00 23 1016.2
20260508164521 80 75 2.0 5.0 0.00 0.00 0.00 23 1016.2
20260508164017 80 77 2.0 5.0 0.00 0.00 0.00 23 1016.3
20260508163517 78 96 2.0 4.0 0.00 0.00 0.00 24 1016.3
20260508163013 78 105 2.0 5.0 0.00 0.00 0.00 24 1016.3
20260508162528 77 119 2.0 5.0 0.00 0.00 0.00 26 1016.3
20260508162024 77 119 3.0 7.0 0.00 0.00 0.00 27 1016.4
20260508161520 77 79 4.0 7.0 0.00 0.00 0.00 26 1016.4
20260508161016 76 96 2.0 7.0 0.00 0.00 0.00 27 1016.5
20260508160512 76 70 3.0 5.0 0.00 0.00 0.00 27 1016.5
20260508160039 75 97 3.0 4.0 0.00 0.00 0.00 28 1016.5
20260508155524 75 102 2.0 4.0 0.00 0.00 0.00 29 1016.5
20260508155020 75 106 2.0 4.0 0.00 0.00 0.00 29 1016.6
20260508154516 74 104 1.0 4.0 0.00 0.00 0.00 29 1016.6
20260508154012 74 104 2.0 3.0 0.00 0.00 0.00 30 1016.6
20260508153528 73 105 2.0 5.0 0.00 0.00 0.00 30 1016.6
20260508153023 71 106 2.0 6.0 0.00 0.00 0.00 31 1016.7
20260508152519 71 95 2.0 5.0 0.00 0.00 0.00 32 1016.8
20260508152019 70 81 3.0 6.0 0.00 0.00 0.00 32 1016.7
20260508151515 69 90 2.0 5.0 0.00 0.00 0.00 33 1016.7
20260508151031 69 110 2.0 5.0 0.00 0.00 0.00 34 1016.8
20260508150526 69 98 2.0 5.0 0.00 0.00 0.00 34 1016.8
20260508150035 69 68 2.0 6.0 0.00 0.00 0.00 35 1016.7
20260508145515 69 65 2.0 6.0 0.00 0.00 0.00 35 1016.7
20260508145031 69 61 2.0 3.0 0.00 0.00 0.00 36 1016.8
20260508144531 68 61 2.0 7.0 0.00 0.00 0.00 36 1016.8
20260508144027 68 58 2.0 7.0 0.00 0.00 0.00 36 1016.7
20260508143523 68 71 2.0 6.0 0.00 0.00 0.00 36 1016.6
20260508143019 67 71 2.0 6.0 0.00 0.00 0.00 37 1016.5
20260508142514 67 121 2.0 4.0 0.00 0.00 0.00 38 1016.5
20260508142030 66 122 2.0 4.0 0.00 0.00 0.00 38 1016.5
20260508141526 65 121 2.0 5.0 0.00 0.00 0.00 38 1016.4
20260508141026 65 122 3.0 5.0 0.00 0.00 0.00 39 1016.4
20260508140521 65 115 2.0 4.0 0.00 0.00 0.00 39 1016.3
20260508140028 65 112 2.0 4.0 0.00 0.00 0.00 39 1016.3
20260508135529 64 113 3.0 4.0 0.00 0.00 0.00 40 1016.3
20260508135026 64 316 2.0 5.0 0.00 0.00 0.00 40 1016.3
20260508134522 64 134 2.0 3.0 0.00 0.00 0.00 40 1016.2
20260508134018 63 135 2.0 4.0 0.00 0.00 0.00 41 1016.3
20260508133519 63 135 2.0 4.0 0.00 0.00 0.00 42 1016.2
20260508133014 62 135 2.0 4.0 0.00 0.00 0.00 42 1016.2
20260508132529 63 159 2.0 4.0 0.00 0.00 0.00 42 1016.2
20260508132026 62 189 1.0 3.0 0.00 0.00 0.00 42 1016.0
20260508131522 62 189 1.0 3.0 0.00 0.00 0.00 43 1016.0
20260508131017 62 190 0.0 2.0 0.00 0.00 0.00 43 1016.0
20260508130512 61 190 0.0 3.0 0.00 0.00 0.00 44 1015.9
20260508130039 60 190 1.0 3.0 0.00 0.00 0.00 44 1015.8
20260508125524 60 189 0.0 0.0 0.00 0.00 0.00 45 1015.7
20260508125019 59 189 0.0 0.0 0.00 0.00 0.00 46 1015.8
20260508124515 59 189 0.0 1.0 0.00 0.00 0.00 47 1015.6
20260508124031 58 189 0.0 2.0 0.00 0.00 0.00 47 1015.6
20260508123527 61 189 1.0 2.0 0.00 0.00 0.00 43 1015.6
20260508123022 60 189 0.0 3.0 0.00 0.00 0.00 44 1015.5
20260508122518 60 189 1.0 3.0 0.00 0.00 0.00 43 1015.4
20260508122018 60 188 1.0 2.0 0.00 0.00 0.00 44 1015.3
20260508121514 60 188 0.0 2.0 0.00 0.00 0.00 44 1015.2
20260508121030 60 188 0.0 2.0 0.00 0.00 0.00 44 1015.3
20260508120526 61 188 0.0 2.0 0.00 0.00 0.00 43 1015.2
20260508120034 61 188 0.0 2.0 0.00 0.00 0.00 43 1015.2
20260508115516 59 188 0.0 1.0 0.00 0.00 0.00 45 1015.3
20260508115012 60 188 0.0 1.0 0.00 0.00 0.00 45 1015.2
20260508114512 59 188 1.0 2.0 0.00 0.00 0.00 46 1015.3
20260508114028 59 188 1.0 2.0 0.00 0.00 0.00 47 1015.2
20260508113524 58 188 0.0 2.0 0.00 0.00 0.00 48 1015.1
20260508113021 58 188 1.0 2.0 0.00 0.00 0.00 49 1015.0
20260508112517 59 188 0.0 1.0 0.00 0.00 0.00 47 1014.9
20260508112012 59 188 0.0 1.0 0.00 0.00 0.00 48 1015.0
20260508111528 58 188 1.0 1.0 0.00 0.00 0.00 48 1014.9
20260508111028 59 188 0.0 0.0 0.00 0.00 0.00 46 1014.8
20260508110524 60 188 0.0 0.0 0.00 0.00 0.00 45 1014.8
20260508110031 60 188 0.0 0.0 0.00 0.00 0.00 45 1014.8
20260508105512 60 188 0.0 1.0 0.00 0.00 0.00 45 1014.8
20260508105028 61 188 1.0 1.0 0.00 0.00 0.00 44 1014.8
20260508104524 60 188 1.0 1.0 0.00 0.00 0.00 44 1014.7
20260508104020 62 188 1.0 2.0 0.00 0.00 0.00 41 1014.7
20260508103520 62 188 0.0 2.0 0.00 0.00 0.00 40 1014.7
20260508103016 60 188 1.0 2.0 0.00 0.00 0.00 45 1014.8
20260508102511 60 188 0.0 0.0 0.00 0.00 0.00 44 1014.8
20260508102027 61 188 0.0 2.0 0.00 0.00 0.00 44 1014.9
20260508101523 60 188 0.0 2.0 0.00 0.00 0.00 44 1014.8
20260508101019 61 188 1.0 2.0 0.00 0.00 0.00 43 1014.8
20260508100515 61 188 1.0 1.0 0.00 0.00 0.00 42 1014.8
20260508100026 62 188 1.0 2.0 0.00 0.00 0.00 41 1014.8
20260508095527 61 188 1.0 2.0 0.00 0.00 0.00 42 1014.8
20260508095023 62 188 0.0 1.0 0.00 0.00 0.00 39 1014.7
20260508094519 63 188 0.0 1.0 0.00 0.00 0.00 39 1014.7
20260508094015 64 188 0.0 3.0 0.00 0.00 0.00 37 1014.7
20260508093530 65 188 1.0 3.0 0.00 0.00 0.00 36 1014.6
20260508093026 64 188 1.0 2.0 0.00 0.00 0.00 37 1014.7
20260508092527 62 190 0.0 1.0 0.00 0.00 0.00 39 1014.7
20260508092027 64 190 0.0 1.0 0.00 0.00 0.00 37 1014.7
20260508091523 65 190 0.0 0.0 0.00 0.00 0.00 36 1014.7
20260508091018 65 190 0.0 2.0 0.00 0.00 0.00 35 1014.7
20260508090514 66 189 0.0 2.0 0.00 0.00 0.00 34 1014.7
20260508090043 65 190 1.0 1.0 0.00 0.00 0.00 34 1014.7
20260508085523 65 190 0.0 0.0 0.00 0.00 0.00 36 1014.8
20260508085019 65 190 0.0 0.0 0.00 0.00 0.00 35 1014.9
20260508084519 64 189 0.0 0.0 0.00 0.00 0.00 35 1014.9
20260508084015 65 190 0.0 0.0 0.00 0.00 0.00 35 1014.9
20260508083530 65 190 0.0 0.0 0.00 0.00 0.00 34 1014.8
20260508083027 66 190 0.0 1.0 0.00 0.00 0.00 32 1014.8
20260508082523 67 190 0.0 2.0 0.00 0.00 0.00 31 1014.8
20260508082019 68 190 1.0 3.0 0.00 0.00 0.00 30 1014.8
20260508081514 69 189 1.0 3.0 0.00 0.00 0.00 30 1014.9
20260508081013 67 189 0.0 0.0 0.00 0.00 0.00 31 1015.0
20260508080529 65 189 0.0 0.0 0.00 0.00 0.00 35 1015.0
20260508080036 65 189 0.0 0.0 0.00 0.00 0.00 35 1015.2
20260508075517 65 189 0.0 0.0 0.00 0.00 0.00 34 1015.0
20260508075013 67 189 0.0 0.0 0.00 0.00 0.00 33 1015.2
20260508074529 66 189 0.0 0.0 0.00 0.00 0.00 32 1015.3
20260508074025 66 189 0.0 0.0 0.00 0.00 0.00 33 1015.3
20260508073520 67 189 0.0 1.0 0.00 0.00 0.00 33 1015.4
20260508073019 67 189 0.0 2.0 0.00 0.00 0.00 32 1015.4
20260508072515 67 189 1.0 2.0 0.00 0.00 0.00 33 1015.4
20260508072012 67 189 1.0 2.0 0.00 0.00 0.00 32 1015.4
20260508071527 68 189 1.0 2.0 0.00 0.00 0.00 31 1015.5
20260508071023 68 189 0.0 2.0 0.00 0.00 0.00 30 1015.4
20260508070518 67 189 0.0 2.0 0.00 0.00 0.00 32 1015.4
20260508070046 67 188 1.0 2.0 0.00 0.00 0.00 33 1015.4
20260508065528 67 188 1.0 2.0 0.00 0.00 0.00 33 1015.3
20260508065024 68 188 0.0 0.0 0.00 0.00 0.00 31 1015.4
20260508064519 69 188 0.0 1.0 0.00 0.00 0.00 31 1015.3
20260508064014 70 188 0.0 1.0 0.00 0.00 0.00 29 1015.3
20260508063530 70 188 0.0 1.0 0.00 0.00 0.00 28 1015.3
20260508063025 71 188 0.0 1.0 0.00 0.00 0.00 28 1015.4
20260508062521 71 188 0.0 2.0 0.00 0.00 0.00 27 1015.5
20260508062020 72 188 0.0 2.0 0.00 0.00 0.00 26 1015.6
20260508061516 72 189 1.0 2.0 0.00 0.00 0.00 26 1015.5
20260508061012 72 189 0.0 1.0 0.00 0.00 0.00 26 1015.5
20260508060528 72 189 0.0 2.0 0.00 0.00 0.00 26 1015.5
20260508060036 72 189 1.0 2.0 0.00 0.00 0.00 26 1015.7
20260508055517 73 189 0.0 2.0 0.00 0.00 0.00 26 1015.5
20260508055014 72 189 0.0 3.0 0.00 0.00 0.00 26 1015.6
20260508054513 73 189 1.0 6.0 0.00 0.00 0.00 25 1015.5
20260508054029 73 190 1.0 6.0 0.00 0.00 0.00 25 1015.5
20260508053523 74 200 1.0 4.0 0.00 0.00 0.00 24 1015.5
20260508053019 75 175 1.0 7.0 0.00 0.00 0.00 23 1015.4
20260508052514 76 133 2.0 10.0 0.00 0.00 0.00 22 1015.4
20260508052030 76 117 5.0 10.0 0.00 0.00 0.00 21 1015.4
20260508051524 75 80 0.0 6.0 0.00 0.00 0.00 22 1015.3
20260508051019 75 88 1.0 4.0 0.00 0.00 0.00 22 1015.3
20260508050519 76 88 0.0 6.0 0.00 0.00 0.00 21 1015.0
20260508050047 77 178 1.0 9.0 0.00 0.00 0.00 20 1015.0
20260508045528 77 215 3.0 9.0 0.00 0.00 0.00 20 1014.9
20260508045024 77 212 3.0 11.0 0.00 0.00 0.00 20 1014.9
20260508044520 77 227 4.0 12.0 0.00 0.00 0.00 20 1014.8
20260508044016 77 250 4.0 12.0 0.00 0.00 0.00 20 1014.8
20260508043532 77 261 4.0 11.0 0.00 0.00 0.00 20 1014.8
20260508043032 77 227 3.0 12.0 0.00 0.00 0.00 20 1014.7
20260508042527 78 256 4.0 13.0 0.00 0.00 0.00 20 1014.6
20260508042023 78 248 3.0 14.0 0.00 0.00 0.00 20 1014.5
20260508041519 78 253 4.0 14.0 0.00 0.00 0.00 20 1014.5
20260508041015 78 210 3.0 11.0 0.00 0.00 0.00 20 1014.5
20260508040531 78 252 4.0 11.0 0.00 0.00 0.00 20 1014.5
20260508040038 78 235 5.0 11.0 0.00 0.00 0.00 19 1014.4
20260508035523 78 277 4.0 11.0 0.00 0.00 0.00 19 1014.3
20260508035019 78 269 3.0 13.0 0.00 0.00 0.00 19 1014.3
20260508034515 79 240 4.0 13.0 0.00 0.00 0.00 19 1014.0
20260508034031 79 254 7.0 12.0 0.00 0.00 0.00 18 1014.0
20260508033526 79 252 5.0 12.0 0.00 0.00 0.00 18 1013.9
20260508033022 79 261 4.0 12.0 0.00 0.00 0.00 18 1013.7
20260508032518 79 233 2.0 7.0 0.00 0.00 0.00 18 1013.8
20260508032018 79 232 4.0 7.0 0.00 0.00 0.00 18 1013.5
20260508031533 79 223 3.0 10.0 0.00 0.00 0.00 18 1013.5
20260508031027 79 233 3.0 7.0 0.00 0.00 0.00 18 1013.3
20260508030523 79 241 1.0 6.0 0.00 0.00 0.00 18 1013.2
20260508030031 80 244 2.0 6.0 0.00 0.00 0.00 18 1013.2
20260508025533 80 226 3.0 9.0 0.00 0.00 0.00 18 1013.1
20260508025029 80 269 4.0 10.0 0.00 0.00 0.00 18 1013.0
20260508024524 80 226 5.0 12.0 0.00 0.00 0.00 17 1013.0
20260508024024 81 249 6.0 15.0 0.00 0.00 0.00 17 1012.9
20260508023520 81 264 9.0 19.0 0.00 0.00 0.00 17 1012.9
20260508023016 81 238 9.0 19.0 0.00 0.00 0.00 17 1012.8
20260508022531 81 246 5.0 15.0 0.00 0.00 0.00 17 1012.9
20260508022027 82 237 8.0 15.0 0.00 0.00 0.00 16 1012.8
20260508021523 82 174 6.0 11.0 0.00 0.00 0.00 16 1012.7
20260508021019 84 132 3.0 9.0 0.00 0.00 0.00 12 1012.8
20260508020519 84 301 2.0 10.0 0.00 0.00 0.00 12 1012.4
20260508020047 85 290 3.0 10.0 0.00 0.00 0.00 12 1012.2
20260508015528 85 267 3.0 9.0 0.00 0.00 0.00 12 1012.1
20260508015024 85 286 4.0 9.0 0.00 0.00 0.00 12 1011.9
20260508014520 85 290 2.0 9.0 0.00 0.00 0.00 12 1012.0
20260508014016 85 302 4.0 12.0 0.00 0.00 0.00 12 1011.9
20260508013531 85 291 4.0 14.0 0.00 0.00 0.00 12 1011.9
20260508013031 85 290 6.0 14.0 0.00 0.00 0.00 12 1011.9
20260508012527 86 291 6.0 14.0 0.00 0.00 0.00 12 1011.8
20260508012023 86 283 7.0 13.0 0.00 0.00 0.00 12 1011.8
20260508011519 86 277 3.0 8.0 0.00 0.00 0.00 12 1011.6
20260508011015 86 279 3.0 13.0 0.00 0.00 0.00 12 1011.6
20260508010531 86 314 4.0 13.0 0.00 0.00 0.00 12 1011.6
20260508010038 87 296 5.0 11.0 0.00 0.00 0.00 12 1011.4
20260508005523 87 348 2.0 8.0 0.00 0.00 0.00 12 1011.4
20260508005019 87 294 3.0 10.0 0.00 0.00 0.00 12 1011.4
20260508004515 87 276 5.0 11.0 0.00 0.00 0.00 12 1011.3
20260508003514 88 273 5.0 9.0 0.00 0.00 0.00 12 1011.2
20260508003029 88 277 4.0 12.0 0.00 0.00 0.00 12 1011.2
20260508002525 88 295 6.0 12.0 0.00 0.00 0.00 12 1011.1
20260508002021 88 284 5.0 12.0 0.00 0.00 0.00 12 1011.1
20260508001517 89 307 5.0 12.0 0.00 0.00 0.00 12 1011.1
20260508001017 90 345 6.0 12.0 0.00 0.00 0.00 12 1011.2
20260508000513 89 293 2.0 13.0 0.00 0.00 0.00 12 1011.1
20260508000040 89 287 5.0 11.0 0.00 0.00 0.00 12 1011.1
20260507235522 88 285 1.0 8.0 0.00 0.00 0.00 13 1011.2
20260507235017 90 329 3.0 7.0 0.00 0.00 0.00 12 1011.1
20260507234513 90 279 2.0 8.0 0.00 0.00 0.00 12 1011.1
20260507234029 89 281 4.0 9.0 0.00 0.00 0.00 12 1011.2
20260507233529 87 18 1.0 10.0 0.00 0.00 0.00 13 1011.1
20260507233024 88 19 5.0 10.0 0.00 0.00 0.00 12 1011.2
20260507232520 89 282 3.0 10.0 0.00 0.00 0.00 12 1011.1
20260507232016 90 296 4.0 11.0 0.00 0.00 0.00 12 1011.1
20260507231532 89 287 2.0 11.0 0.00 0.00 0.00 12 1011.2
20260507231027 89 356 3.0 7.0 0.00 0.00 0.00 12 1011.2
20260507230523 88 51 2.0 9.0 0.00 0.00 0.00 13 1011.3
20260507230035 89 278 3.0 9.0 0.00 0.00 0.00 12 1011.4
20260507225516 89 340 2.0 8.0 0.00 0.00 0.00 13 1011.4
20260507224514 88 5 4.0 11.0 0.00 0.00 0.00 13 1011.4
20260507224030 88 337 5.0 12.0 0.00 0.00 0.00 13 1011.6
20260507223527 90 15 3.0 16.0 0.00 0.00 0.00 12 1011.4
20260507223023 88 49 6.0 16.0 0.00 0.00 0.00 12 1011.3